TimePST,TemperatureF,Dew PointF,Humidity,Sea Level PressureIn,VisibilityMPH,Wind Direction,Wind SpeedMPH,Gust SpeedMPH,PrecipitationIn,Events,Conditions,WindDirDegrees,DateUTC
12:53 AM,35.1,30.0,82,30.19,10.0,Calm,Calm,-,N/A,,Clear,0,2012-12-31 08:53:00
1:53 AM,34.0,28.9,82,30.22,10.0,Calm,Calm,-,N/A,,Clear,0,2012-12-31 09:53:00
2:53 AM,34.0,30.0,85,30.23,10.0,ENE,3.5,-,N/A,,Clear,60,2012-12-31 10:53:00
3:53 AM,33.1,28.0,82,30.24,10.0,North,3.5,-,N/A,,Clear,350,2012-12-31 11:53:00
4:53 AM,48.9,28.0,44,30.23,10.0,Variable,4.6,-,N/A,,Clear,0,2012-12-31 12:53:00
5:53 AM,50.0,27.0,41,30.22,10.0,WSW,6.9,-,N/A,,Clear,240,2012-12-31 13:53:00
6:53 AM,46.9,27.0,46,30.25,10.0,ENE,5.8,-,N/A,,Clear,60,2012-12-31 14:53:00
7:53 AM,37.9,28.0,68,30.27,10.0,WNW,3.5,-,N/A,,Clear,290,2012-12-31 15:53:00
8:53 AM,51.1,30.0,44,30.29,10.0,Calm,Calm,-,N/A,,Clear,0,2012-12-31 16:53:00
9:53 AM,64.0,30.9,29,30.30,10.0,ESE,4.6,-,N/A,,Clear,110,2012-12-31 17:53:00
10:53 AM,61.0,25.0,25,30.29,10.0,ESE,3.5,-,N/A,,Clear,120,2012-12-31 18:53:00
11:53 AM,59.0,28.9,32,30.28,10.0,Variable,3.5,-,N/A,,Clear,0,2012-12-31 19:53:00
12:53 PM,61.0,28.0,29,30.25,10.0,West,4.6,-,N/A,,Clear,270,2012-12-31 20:53:00
1:53 PM,61.0,27.0,27,30.23,10.0,Calm,Calm,-,N/A,,Clear,0,2012-12-31 21:53:00
2:53 PM,73.9,28.0,18,30.24,10.0,West,4.6,-,N/A,,Clear,260,2012-12-31 22:53:00
3:53 PM,70.0,25.0,18,30.23,10.0,West,4.6,-,N/A,,Clear,270,2012-12-31 23:53:00
4:53 PM,53.1,30.0,41,30.23,10.0,Calm,Calm,-,N/A,,Clear,0,2013-01-01 00:53:00
5:53 PM,50.0,30.9,48,30.25,10.0,WNW,3.5,-,N/A,,Clear,300,2013-01-01 01:53:00
6:53 PM,53.1,34.0,48,30.25,10.0,Calm,Calm,-,N/A,,Clear,0,2013-01-01 02:53:00
7:53 PM,52.0,32.0,47,30.27,10.0,North,3.5,-,N/A,,Clear,10,2013-01-01 03:53:00
8:53 PM,46.9,32.0,56,30.26,10.0,Calm,Calm,-,N/A,,Mostly Cloudy,0,2013-01-01 04:53:00
9:53 PM,53.1,32.0,45,30.26,10.0,Calm,Calm,-,N/A,,Partly Cloudy,0,2013-01-01 05:53:00
11:53 PM,48.9,30.0,48,30.25,10.0,Calm,Calm,-,N/A,,Clear,0,2013-01-01 07:53:00